Weather History for Socorro, NM

Change the Weather History Date:

Wednesday, January 23, 2013

  Actual Average Record
Temperature  
Mean Temperature 44 °F -  
Max Temperature 61 °F 53 °F 61 °F (2013)
Min Temperature 27 °F 20 °F 21 °F (2014)
Degree Days  
Heating Degree Days 21    
Moisture  
Dew Point 9 °F    
Average Humidity 28    
Maximum Humidity 44    
Minimum Humidity 13    
Precipitation  
Precipitation 0.00 in - - ()
Sea Level Pressure  
Sea Level Pressure 30.34 in    
Wind  
Wind Speed 7 mph (NW)    
Max Wind Speed 12 mph    
Max Gust Speed -    
Visibility 10 miles    
Events      
Averages and records for this station are not official NWS values.
T = Trace of Precipitation, MM = Missing Value Source: NWS Daily Summary

Daily Weather History Graph

Daily Weather History Graph

Search for Another Location

Airport:

Trip Planner

Search our weather history database for the weather conditions in past years. The results will help you decide how hot, cold, wet, or windy it might be!

Date:

Astronomy

Jan. 23, 2013 Rise Set
Actual Time 7:09 AM MST 5:29 PM MST
Civil Twilight 6:43 AM MST 5:56 PM MST
Nautical Twilight 6:12 AM MST 6:26 PM MST
Astronomical Twilight 5:43 AM MST 6:56 PM MST
Moon 2:44 PM MST (1/23) 4:21 AM MST (1/23)
Length of Visible Light 11h 13m
Length of Day
10h 19m
Waxing Gibbous, 89% of the Moon is Illuminated
Jan 23
Waxing Gibbous
Jan 26
Full
Feb 3
Last Quarter
Feb 10
New
Feb 17
First Quarter

Hourly Weather History & Observations

Time (MST) Temp. Windchill Dew Point Humidity Pressure Visibility Wind Dir Wind Speed Gust Speed Precip Events Conditions
12:15 AM 33.6 °F 28.4 °F 5.7 °F 31% 30.32 in 10.0 mi WNW 5.8 mph - N/A   Clear
12:35 AM 34.7 °F 28.1 °F 5.0 °F 29% 30.32 in 10.0 mi NW 8.1 mph - N/A   Clear
12:55 AM 33.6 °F 28.4 °F 5.0 °F 30% 30.32 in 10.0 mi NW 5.8 mph - N/A   Clear
1:15 AM 31.8 °F 25.4 °F 5.0 °F 32% 30.32 in 10.0 mi NNW 6.9 mph - N/A   Clear
1:35 AM 32.0 °F 23.0 °F 5.4 °F 33% 30.33 in 10.0 mi NNW 11.5 mph - N/A   Clear
1:55 AM 33.6 °F 28.4 °F 5.9 °F 31% 30.34 in 10.0 mi NW 5.8 mph - N/A   Clear
2:15 AM 33.1 °F 27.7 °F 6.1 °F 32% 30.34 in 10.0 mi WNW 5.8 mph - N/A   Clear
2:35 AM 32.2 °F 25.8 °F 5.9 °F 33% 30.34 in 10.0 mi NW 6.9 mph - N/A   Clear
2:55 AM 30.9 °F 24.3 °F 5.9 °F 35% 30.35 in 10.0 mi NW 6.9 mph - N/A   Clear
3:15 AM 32.0 °F 24.8 °F 6.4 °F 34% 30.35 in 10.0 mi NW 8.1 mph - N/A   Clear
3:35 AM 31.1 °F 23.7 °F 6.6 °F 36% 30.35 in 10.0 mi NW 8.1 mph - N/A   Clear
3:55 AM 30.2 °F 22.6 °F 7.3 °F 38% 30.35 in 10.0 mi NW 8.1 mph - N/A   Clear
4:15 AM 29.8 °F 22.2 °F 7.5 °F 39% 30.35 in 10.0 mi NNW 8.1 mph - N/A   Clear
4:35 AM 30.0 °F 22.4 °F 6.8 °F 38% 30.35 in 10.0 mi NNW 8.1 mph - N/A   Clear
4:55 AM 29.3 °F 21.5 °F 7.2 °F 39% 30.35 in 10.0 mi NNW 8.1 mph - N/A   Clear
5:15 AM 30.0 °F 21.1 °F 7.7 °F 39% 30.35 in 10.0 mi NW 10.4 mph - N/A   Clear
5:35 AM 28.6 °F 19.9 °F 7.7 °F 41% 30.35 in 10.0 mi NNW 9.2 mph - N/A   Clear
5:55 AM 28.0 °F 19.3 °F 8.4 °F 44% 30.36 in 10.0 mi NNW 9.2 mph - N/A   Clear
6:15 AM 28.4 °F 21.2 °F 8.6 °F 43% 30.36 in 10.0 mi North 6.9 mph - N/A   Clear
6:35 AM 29.1 °F 20.6 °F 8.4 °F 42% 30.37 in 10.0 mi NW 9.2 mph - N/A   Clear
6:55 AM 28.9 °F 19.8 °F 7.7 °F 41% 30.39 in 10.0 mi NW 10.4 mph - N/A   Clear
7:15 AM 27.5 °F 18.0 °F 7.3 °F 43% 30.40 in 10.0 mi NNW 10.4 mph - N/A   Clear
7:35 AM 28.6 °F 19.3 °F 7.5 °F 41% 30.40 in 10.0 mi North 10.4 mph - N/A   Clear
7:55 AM 28.9 °F 22.8 °F 7.0 °F 40% 30.39 in 10.0 mi NW 5.8 mph - N/A   Clear
8:15 AM 31.1 °F 23.1 °F 7.5 °F 37% 30.40 in 10.0 mi NW 9.2 mph - N/A   Clear
8:35 AM 33.3 °F 25.7 °F 7.7 °F 34% 30.39 in 10.0 mi NW 9.2 mph - N/A   Clear
8:55 AM 34.9 °F 27.7 °F 7.9 °F 32% 30.40 in 10.0 mi NW 9.2 mph - N/A   Clear
9:15 AM 37.8 °F 31.8 °F 9.1 °F 31% 30.41 in 10.0 mi NNW 8.1 mph - N/A   Clear
9:35 AM 39.6 °F 35.4 °F 9.7 °F 29% 30.41 in 10.0 mi North 5.8 mph - N/A   Clear
9:55 AM 41.0 °F 34.7 °F 9.5 °F 27% 30.41 in 10.0 mi North 10.4 mph - N/A   Clear
10:15 AM 42.6 °F 37.8 °F 9.5 °F 26% 30.42 in 10.0 mi North 8.1 mph - N/A   Clear
10:35 AM 44.6 °F 39.7 °F 9.5 °F 24% 30.42 in 10.0 mi North 9.2 mph - N/A   Clear
10:55 AM 46.4 °F 41.9 °F 9.7 °F 23% 30.41 in 10.0 mi North 9.2 mph - N/A   Clear
11:15 AM 47.8 °F - 9.9 °F 22% 30.41 in 10.0 mi North 9.2 mph - N/A   Clear
11:35 AM 49.8 °F - 9.9 °F 20% 30.40 in 10.0 mi North 6.9 mph - N/A   Clear
11:55 AM 51.6 °F - 9.7 °F 19% 30.38 in 10.0 mi NNE 8.1 mph - N/A   Clear
12:15 PM 53.2 °F - 9.5 °F 17% 30.36 in 10.0 mi North 8.1 mph - N/A   Clear
12:35 PM 55.0 °F - 10.0 °F 17% 30.35 in 10.0 mi North 10.4 mph - N/A   Clear
12:55 PM 56.3 °F - 9.7 °F 16% 30.34 in 10.0 mi NNW 8.1 mph - N/A   Clear
1:15 PM 57.4 °F - 9.5 °F 15% 30.33 in 10.0 mi NNW 5.8 mph - N/A   Clear
1:35 PM 58.1 °F - 9.7 °F 15% 30.32 in 10.0 mi North 5.8 mph - N/A   Clear
1:55 PM 58.5 °F - 9.5 °F 14% 30.30 in 10.0 mi North 5.8 mph - N/A   Clear
2:15 PM 59.2 °F - 9.3 °F 14% 30.30 in 10.0 mi North 3.5 mph - N/A   Clear
2:35 PM 59.0 °F - 9.0 °F 14% 30.30 in 10.0 mi Calm Calm - N/A   Clear
2:55 PM 59.7 °F - 9.1 °F 14% 30.30 in 10.0 mi Calm Calm - N/A   Clear
3:15 PM 60.4 °F - 8.8 °F 13% 30.29 in 10.0 mi Calm Calm - N/A   Clear
3:35 PM 61.9 °F - 9.3 °F 13% 30.29 in 10.0 mi Calm Calm - N/A   Clear
3:55 PM 61.3 °F - 9.3 °F 13% 30.29 in 10.0 mi Calm Calm - N/A   Clear
4:15 PM 60.8 °F - 9.1 °F 13% 30.29 in 10.0 mi Calm Calm - N/A   Clear
4:35 PM 59.0 °F - 9.3 °F 14% 30.29 in 10.0 mi SSE 3.5 mph - N/A   Clear
4:55 PM 56.8 °F - 9.3 °F 15% 30.28 in 10.0 mi SSE 3.5 mph - N/A   Clear
5:15 PM 54.7 °F - 10.4 °F 17% 30.28 in 10.0 mi Calm Calm - N/A   Clear
5:35 PM 50.5 °F - 10.2 °F 20% 30.28 in 10.0 mi Calm Calm - N/A   Clear
5:55 PM 46.6 °F - 10.2 °F 23% 30.28 in 10.0 mi SSW 3.5 mph - N/A   Clear
6:15 PM 45.3 °F 44.0 °F 10.4 °F 24% 30.29 in 10.0 mi West 3.5 mph - N/A   Clear
6:35 PM 44.1 °F - 10.4 °F 25% 30.29 in 10.0 mi Calm Calm - N/A   Clear
6:55 PM 42.6 °F 40.9 °F 10.2 °F 27% 30.29 in 10.0 mi NNW 3.5 mph - N/A   Clear
7:15 PM 41.5 °F 38.6 °F 10.2 °F 28% 30.30 in 10.0 mi WNW 4.6 mph - N/A   Clear
7:35 PM 41.9 °F 38.2 °F 10.2 °F 27% 30.30 in 10.0 mi West 5.8 mph - N/A   Clear
7:55 PM 42.4 °F 40.7 °F 10.2 °F 27% 30.30 in 10.0 mi NW 3.5 mph - N/A   Clear
8:15 PM 40.3 °F 36.3 °F 10.4 °F 29% 30.30 in 10.0 mi West 5.8 mph - N/A   Clear
8:35 PM 40.1 °F 36.1 °F 10.2 °F 29% 30.30 in 10.0 mi West 5.8 mph - N/A   Clear
8:55 PM 39.4 °F 35.2 °F 10.2 °F 30% 30.30 in 10.0 mi West 5.8 mph - N/A   Clear
9:15 PM 39.6 °F 35.4 °F 10.2 °F 30% 30.30 in 10.0 mi West 5.8 mph - N/A   Clear
9:35 PM 38.3 °F - 9.9 °F 31% 30.31 in 10.0 mi Calm Calm - N/A   Clear
9:55 PM 37.4 °F - 9.9 °F 32% 30.33 in 10.0 mi Calm Calm - N/A   Clear
10:15 PM 38.5 °F - 8.6 °F 29% 30.32 in 10.0 mi Calm Calm - N/A   Clear
10:55 PM 37.9 °F 35.5 °F 9.5 °F 31% 30.32 in 10.0 mi WSW 3.5 mph - N/A   Clear
11:15 PM 36.0 °F 31.1 °F 9.5 °F 33% 30.32 in 10.0 mi WSW 5.8 mph - N/A   Clear
11:35 PM 36.9 °F 32.2 °F 9.5 °F 32% 30.31 in 10.0 mi WSW 5.8 mph - N/A   Clear
11:55 PM 35.1 °F 32.2 °F 9.5 °F 35% 30.31 in 10.0 mi WNW 3.5 mph - N/A   Clear